Location: Sternwarte_Laufen
(47.9344°N, 12.9346°E)
Time: 21:14:01
(UTC+01:00)

ISS - Pass Details

Date: 14 January 2018
Orbit: 402 x 407 km, 51.6° (Epoch: 17 January)

Event Time Altitude Azimuth Distance (km) Brightness Sun altitude
Exits shadow 06:16:45 24° 232° (SW) 896 -2.4 -15.7°
Maximum altitude 06:17:10 24° 219° (SW) 877 -2.4 -15.7°
Drops below altitude 10° 06:19:53 10° 162° (SSE) 1,460 -0.6 -15.2°
Sets 06:22:11 0° 148° (SSE) 2,316 0.8 -14.9°
